 最新の情報はテレホンサービス(03−3942−1000)をお聞きください。  
 以後の運用につきましては平成13年10月上旬にお知らせ致します。
    
-----------------------    FO−20(JAS-1b)道要素   -------------------------
  5)
  ■ 軌道要素1 :出典はFO-29「ふじ3号」に同じ.
  
FO-20
1 20480U 90013C   01242.15836752 -.00000034  00000-0 -96518-5 0  3372
2 20480  99.0552 296.7375 0540816 141.6611 222.4245 12.83296285541589
 
  ■ 軌道要素2 :出典はFO−29「ふじ3号」に同じ.
               
Satellite: FO-20
Catalog number: 20480
Epoch time:      01242.15836752
Element set:     337
Inclination:       99.0552 deg
RA of node:       296.7375 deg
Eccentricity:    0.0540816
Arg of perigee:   141.6611 deg
Mean anomaly:     222.4245 deg
Mean motion:   12.83296285 rev/day
Decay rate:       -3.4e-07 rev/day^2
Epoch rev:           54158
Checksum:              297

 --------------------------------------------------------------------------------
 
         ■ ふじ2号/FO−20/JAS-1b ■      
            
          「ふじ2号」 現況                                                                                  
             
   JAS-1b(ふじ2号)のCWテレメトリ信号に,1997年10月12日12時(JST)の
 日本上空通過時,3桁の数字が繰り返されるはずが3個の長音の繰り返しとなっているという
 異常が発見されました。この不具合は次の通過時からは回復していましたが13日15時20分の
 通過時に再び観測されました。現在はA0の送信が続いています。衛星のアナログ系中継モード
 動作は異常が無く,正常時のテレメトリ内容からは衛星の動作に異常は認められません。従って,
 直ちに衛星のミッションに影響することは無いと予想されますので,当面はアナログ系中継
 モードを継続します。衛星は既に打ち上げてから7年8ヶ月を経ておりますので,今後は監視を
 強化する予定です。アマチュア各位のレポートをお待ちします。
 -------------------------------------------------------------------------------- 
  1997年10月14日 00時35分 確認のテレメトリ音 151 KB (A0) 
  1997年10月14日 11時10分 確認のテレメトリ音 216 KB (異常キーイング) 

  以上 JARLのホ−ムページの http://www.jarl.or.jp/Japanese/3_Fuji/new/fuji.htm

===================== FO-20 ふじ2号 のテレメトリ観測結果 ====================

  7月19日(木)19:45(JST)の観測結果では以前観測した単一周波数の
ドップラー効果で周波数がずれていくのみの状態でした。
                                         
   =============   JAS-2 (ふじ3号)と現在までの情報   ===========
  
  A.電話によるふじ3号の運用情報
      社団法人日本アマチュア連盟によるサービス
           TEL .   03− 3942 − 1000
  B.アマチュア無線FAXサービス
      JARLによるふじ3号の軌道情報(オービットカレンダー)
         FAX No.  03− 3233 −0055
  C.WWWブラウザで情報を簡単に見れる人のためにJAS−2
     ふじ3号の衛星としての運用されるまでの名前)の概要、打ち上げ
     までの状況、運用中における状況を説明したホームページを紹介し
     ておきます.
     社団法人日本アマチュア無線連盟(JARL)のホームページ

          http://www.jarl.or.jp/Japanese/3_Fuji/jasmenu.htm
 
     宇宙開発事業団(NASDA)ホームページ 
          http://www.nasda.go.jp/
         打上げ衛星 :地球観測プラットフォーム技術衛星(ADEOS) 
                       アマチュア衛星3号(JAS-2)
          http://spaceboy.nasda.go.jp/note/eisei/j/Eis15h_j.html#Eis15h_01_j
     http://spaceboy.nasda.go.jp/note/eisei/j/Eis15i_j.html        

  D.JAMSATによる軌道情報の活用
        JAMSATのホームページまたはjamsat−kepsの軌道要素より
      衛星の軌道情報を得る.
     JAMSATホームページ
               URL    http://www.jamsat.or.jp
       上記ホームページでは各地で行われるアマチュア通信衛星に関する
      ミューティングのお知らせや世界のアマチュア衛星に関する情報が
      満載されています.
 ========================================================================  
     JAMSATのメンバーのご協力によりJH6MME(高山 秀造)が
    執筆・編集を担当しております.ご指摘の意見、疑問やこのようにしたら
    というアイデアがありましたら小さなことでもかまいませんので気軽に下
    記アドレスまでご連絡ください.jamsat−newsからjas2
    infoへの転載をJH4PHW局坂井さんに担当して頂いております.  
                  E-mail : jh6mme@jamsat.or.jp : jh4phw@jamsat.or.jp
 ===============================   END  ===============================